User: anonymous   Login
Location: Caltech
(34.1382°N, 118.1253°W)
Time: 20:37:15
(UTC-07:00)
Language:

Oscar 10/S400 - Orbit

View from above orbital plane
View from above orbital plane
View from above satellite
View from above satellite

Ground track
Ground track

The orbit data is extracted from the following two-line orbital elements,

1 14129U 83058B   15178.99520503 -.00000197  00000-0  00000+0 0  9993
2 14129 025.8733 151.4288 6079362 110.2403 348.3782 02.05871487212989
Epoch (UTC): 27 June 2015 23:53:05
Eccentricity: 0.6079362
inclination: 25.8733°
perigee height: 3855 km
apogee height: 35591 km
right ascension of ascending node: 151.4288°
argument of perigee: 110.2403°
revolutions per day: 2.05871487
mean anomaly at epoch: 348.3782°
orbit number at epoch: 21298

The dashed part of the orbit path shows where the satellite is in the earth's shadow,  

DLR